Previsão horária em Aba

Hoje, 29 Outubro, Quinta-feira

Tempo Temperatura Precipitação Vento Pressão Humidade
00:00 +27°C° 0 mm 1 m/s 752 mmHg 91%
01:00 +26°C° 0.2 mm 1 m/s 752 mmHg 91%
02:00 +26°C° 0.2 mm 1 m/s 752 mmHg 91%
03:00 +26°C° 0.2 mm 1 m/s 751 mmHg 91%
04:00 +26°C° 0 mm 1 m/s 752 mmHg 91%
05:00 +26°C° 0 mm 1 m/s 752 mmHg 91%
06:00 +26°C° 0 mm 1 m/s 753 mmHg 92%
07:00 +27°C° 0 mm 1 m/s 753 mmHg 86%
08:00 +28°C° 0 mm 1 m/s 753 mmHg 81%
09:00 +30°C° 0 mm 1 m/s 754 mmHg 76%
10:00 +31°C° 0.1 mm 1 m/s 753 mmHg 71%
11:00 +32°C° 0.1 mm 1 m/s 752 mmHg 67%
12:00 +33°C° 0.1 mm 1 m/s 752 mmHg 63%
13:00 +32°C° 2.5 mm 1 m/s 751 mmHg 67%
14:00 +31°C° 2.5 mm 2 m/s 751 mmHg 71%
15:00 +31°C° 2.5 mm 2 m/s 750 mmHg 75%
16:00 +29°C° 3.5 mm 2 m/s 751 mmHg 81%
17:00 +28°C° 3.5 mm 3 m/s 752 mmHg 86%
18:00 +26°C° 3.5 mm 3 m/s 752 mmHg 92%
19:00 +26°C° 0.5 mm 3 m/s 753 mmHg 92%
20:00 +26°C° 0.5 mm 2 m/s 753 mmHg 93%
21:00 +26°C° 0.5 mm 2 m/s 754 mmHg 93%
22:00 +26°C° 0 mm 1 m/s 753 mmHg 93%
23:00 +26°C° 0 mm 1 m/s 753 mmHg 92%

Amanhã, 30 Outubro, Sexta-feira

Tempo Temperatura Precipitação Vento Pressão Humidade
00:00 +26°C° 0 mm 1 m/s 753 mmHg 92%
01:00 +26°C° 0 mm 1 m/s 752 mmHg 91%
02:00 +26°C° 0 mm 1 m/s 752 mmHg 91%
03:00 +25°C° 0 mm 1 m/s 751 mmHg 91%
04:00 +26°C° 0 mm 1 m/s 752 mmHg 91%
05:00 +26°C° 0 mm 1 m/s 752 mmHg 91%
06:00 +24°C° 0 mm 0 m/s 753 mmHg 91%
07:00 +25°C° 0 mm 0 m/s 753 mmHg 87%
08:00 +26°C° 0 mm 0 m/s 753 mmHg 83%
09:00 +27°C° 0 mm 0 m/s 754 mmHg 79%
10:00 +30°C° 0 mm 1 m/s 753 mmHg 75%
11:00 +31°C° 0 mm 1 m/s 752 mmHg 71%
12:00 +32°C° 0 mm 2 m/s 752 mmHg 67%
13:00 +32°C° 0.5 mm 2 m/s 751 mmHg 68%
14:00 +32°C° 0.5 mm 2 m/s 751 mmHg 70%
15:00 +31°C° 0.5 mm 2 m/s 750 mmHg 71%
16:00 +30°C° 1.2 mm 2 m/s 751 mmHg 78%
17:00 +29°C° 1.2 mm 2 m/s 751 mmHg 84%
18:00 +27°C° 1.2 mm 2 m/s 751 mmHg 90%
19:00 +27°C° 0.4 mm 2 m/s 752 mmHg 91%
20:00 +27°C° 0.4 mm 2 m/s 752 mmHg 92%
21:00 +26°C° 0.4 mm 2 m/s 753 mmHg 93%
22:00 +26°C° 0 mm 2 m/s 753 mmHg 93%
23:00 +26°C° 0 mm 2 m/s 753 mmHg 94%

Depois de amanhã, 31 Outubro, Sábado

Tempo Temperatura Precipitação Vento Pressão Humidade
00:00 +26°C° 0 mm 1 m/s 752 mmHg 94%
01:00 +26°C° 0 mm 1 m/s 752 mmHg 94%
02:00 +26°C° 0 mm 1 m/s 752 mmHg 94%
03:00 +26°C° 0 mm 1 m/s 752 mmHg 94%
04:00 +26°C° 0 mm 1 m/s 752 mmHg 94%
05:00 +26°C° 0 mm 1 m/s 752 mmHg 93%
06:00 +24°C° 0 mm 0 m/s 753 mmHg 93%
07:00 +28°C° 0.1 mm 1 m/s 753 mmHg 86%
08:00 +29°C° 0.1 mm 1 m/s 753 mmHg 79%
09:00 +31°C° 0.1 mm 1 m/s 754 mmHg 72%
10:00 +32°C° 0.2 mm 1 m/s 753 mmHg 69%
11:00 +33°C° 0.2 mm 1 m/s 752 mmHg 65%
12:00 +33°C° 0.2 mm 1 m/s 751 mmHg 62%
13:00 +33°C° 1.2 mm 1 m/s 751 mmHg 65%
14:00 +32°C° 1.2 mm 2 m/s 751 mmHg 68%
15:00 +31°C° 1.2 mm 2 m/s 750 mmHg 72%
16:00 +30°C° 0.3 mm 2 m/s 751 mmHg 77%
17:00 +29°C° 0.3 mm 2 m/s 751 mmHg 83%
18:00 +27°C° 0.3 mm 2 m/s 752 mmHg 88%
19:00 +27°C° 0 mm 2 m/s 752 mmHg 89%
20:00 +27°C° 0 mm 2 m/s 753 mmHg 89%
21:00 +26°C° 0 mm 2 m/s 753 mmHg 90%
22:00 +26°C° 0 mm 2 m/s 753 mmHg 91%
23:00 +26°C° 0 mm 2 m/s 752 mmHg 91%

1 Novembro, Domingo

Tempo Temperatura Precipitação Vento Pressão Humidade
00:00 +26°C° 0 mm 2 m/s 752 mmHg 92%
01:00 +26°C° 0 mm 1 m/s 752 mmHg 92%
02:00 +26°C° 0 mm 1 m/s 752 mmHg 92%
03:00 +26°C° 0 mm 1 m/s 751 mmHg 92%
04:00 +26°C° 0 mm 1 m/s 752 mmHg 92%
05:00 +26°C° 0 mm 1 m/s 752 mmHg 91%
06:00 +24°C° 0 mm 0 m/s 752 mmHg 91%
07:00 +28°C° 0 mm 1 m/s 753 mmHg 84%
08:00 +29°C° 0 mm 1 m/s 753 mmHg 77%
09:00 +31°C° 0 mm 1 m/s 753 mmHg 70%
10:00 +31°C° 0.7 mm 1 m/s 752 mmHg 69%
11:00 +32°C° 0.7 mm 2 m/s 752 mmHg 67%
12:00 +32°C° 0.7 mm 2 m/s 751 mmHg 66%
13:00 +31°C° 0.7 mm 2 m/s 751 mmHg 68%
14:00 +31°C° 0.7 mm 2 m/s 750 mmHg 71%
15:00 +31°C° 0.7 mm 3 m/s 750 mmHg 73%
16:00 +30°C° 0.2 mm 2 m/s 750 mmHg 78%
17:00 +28°C° 0.2 mm 2 m/s 751 mmHg 82%
18:00 +27°C° 0.2 mm 2 m/s 751 mmHg 87%
19:00 +27°C° 0 mm 2 m/s 752 mmHg 88%
20:00 +27°C° 0 mm 1 m/s 752 mmHg 88%
21:00 +27°C° 0 mm 1 m/s 753 mmHg 89%
22:00 +27°C° 0.5 mm 1 m/s 752 mmHg 90%
23:00 +26°C° 0.5 mm 1 m/s 752 mmHg 90%

2 Novembro, Segunda-feira

Tempo Temperatura Precipitação Vento Pressão Humidade
00:00 +24°C° 0.5 mm 0 m/s 752 mmHg 91%
01:00 +26°C° 0 mm 1 m/s 752 mmHg 91%
02:00 +26°C° 0 mm 1 m/s 751 mmHg 91%
03:00 +26°C° 0 mm 1 m/s 751 mmHg 92%
04:00 +26°C° 0 mm 1 m/s 751 mmHg 92%
05:00 +24°C° 0 mm 0 m/s 752 mmHg 91%
06:00 +24°C° 0 mm 0 m/s 752 mmHg 91%
07:00 +26°C° 0 mm 0 m/s 753 mmHg 84%
08:00 +28°C° 0 mm 0 m/s 753 mmHg 76%
09:00 +32°C° 0 mm 1 m/s 754 mmHg 69%
10:00 +32°C° 0.5 mm 1 m/s 753 mmHg 68%
11:00 +32°C° 0.5 mm 1 m/s 752 mmHg 66%
12:00 +32°C° 0.5 mm 1 m/s 751 mmHg 65%
13:00 +32°C° 1.2 mm 1 m/s 751 mmHg 67%
14:00 +31°C° 1.2 mm 2 m/s 750 mmHg 69%
15:00 +31°C° 1.2 mm 2 m/s 750 mmHg 71%
16:00 +30°C° 0.2 mm 2 m/s 751 mmHg 75%
17:00 +29°C° 0.2 mm 2 m/s 751 mmHg 80%
18:00 +28°C° 0.2 mm 2 m/s 752 mmHg 84%
19:00 +27°C° 0.1 mm 2 m/s 752 mmHg 86%
20:00 +27°C° 0.1 mm 1 m/s 752 mmHg 88%
21:00 +26°C° 0.1 mm 1 m/s 753 mmHg 90%
22:00 +26°C° 0.3 mm 1 m/s 753 mmHg 90%
23:00 +24°C° 0.3 mm 0 m/s 752 mmHg 90%

3 Novembro, Terça-feira

Tempo Temperatura Precipitação Vento Pressão Humidade
00:00 +24°C° 0.3 mm 0 m/s 752 mmHg 90%
01:00 +26°C° 0 mm 1 m/s 752 mmHg 90%
02:00 +26°C° 0 mm 1 m/s 751 mmHg 90%
03:00 +26°C° 0 mm 1 m/s 751 mmHg 91%
04:00 +26°C° 0 mm 1 m/s 752 mmHg 90%
05:00 +26°C° 0 mm 1 m/s 752 mmHg 90%
06:00 +24°C° 0 mm 0 m/s 752 mmHg 90%
07:00 +25°C° 0 mm 0 m/s 753 mmHg 86%
08:00 +26°C° 0 mm 0 m/s 753 mmHg 81%
09:00 +27°C° 0 mm 0 m/s 754 mmHg 77%
10:00 +30°C° 0 mm 1 m/s 753 mmHg 74%
11:00 +31°C° 0 mm 1 m/s 752 mmHg 70%
12:00 +31°C° 0 mm 1 m/s 752 mmHg 67%
13:00 +32°C° 0.7 mm 1 m/s 751 mmHg 67%
14:00 +32°C° 0.7 mm 2 m/s 751 mmHg 68%
15:00 +32°C° 0.7 mm 2 m/s 750 mmHg 68%
16:00 +30°C° 2.9 mm 2 m/s 751 mmHg 75%
17:00 +29°C° 2.9 mm 2 m/s 751 mmHg 81%
18:00 +27°C° 2.9 mm 3 m/s 752 mmHg 87%
19:00 +27°C° 1.8 mm 2 m/s 753 mmHg 89%
20:00 +27°C° 1.8 mm 2 m/s 753 mmHg 90%
21:00 +26°C° 1.8 mm 2 m/s 754 mmHg 91%
22:00 +26°C° 0 mm 1 m/s 753 mmHg 92%
23:00 +26°C° 0 mm 1 m/s 753 mmHg 92%
Mostrar mais